CAPE
0 0 0 0 0 0 0 0 0 0 0 0 0 0 0 0 0 0 0 0 0 0 0 0 0 0 0 0 0 0 0 0 0 0 0 0 0 0 0 0 0 0 0 0 0 0 0
0 0 0 0 0 0 0 0 0 0 0 0 0 0 0 0 0 0 0 0 0 0 0 0 0 0 0 0 0 0 0 0 0 0 0 0 0 0 0 0 0 0 0 0 0 0 0
0 0 0 0 0 0 0 0 0 0 0 0 0 0 0 0 0 0 0 0 0 0 0 0 0 0 0 0 0 0 0 0 0 0 0 0 0 0 0 0 0 0 0 0 0 0 0
0 0 0 0 0 0 0 0 0 0 0 0 0 0 0 0 0 0 0 0 0 0 0 0 0 0 0 0 0 0 0 0 0 0 0 0 0 0 0 0 0 0 0 0 0 0 0
0 0 0 0 0 0 0 0 0 0 0 0 0 0 0 0 0 0 0 0 0 0 0 0 0 0 0 0 0 0 0 0 0 0 0 0 0 0 0 0 0 0 0 0 0 0 0
0 0 0 0 0 0 0 0 0 0 0 0 0 0 0 0 0 0 0 0 0 0 0 0 0 0 0 0 0 0 0 0 0 0 0 0 0 0 0 0 0 0 0 0 0 0 0
0 0 0 0 0 0 0 0 0 0 0 0 0 0 0 0 0 0 0 0 0 0 0 0 0 0 0 0 0 0 0 0 0 0 0 0 0 0 0 0 0 0 0 0 0 0 0
0 0 0 0 0 0 0 0 0 0 0 0 0 0 0 0 0 0 0 0 0 0 0 0 0 0 0 0 0 0 0 0 0 0 0 0 0 0 0 0 0 0 0 0 0 0 0
0 0 0 0 0 0 0 0 0 0 0 0 0 0 0 0 0 0 0 0 0 0 0 0 0 0 0 0 0 0 0 0 0 0 0 0 0 0 0 0 0 0 0 0 0 0 0
0 0 2 0 0 0 0 0 0 0 0 0 0 0 0 0 0 0 0 0 0 0 0 0 0 0 0 0 0 0 0 0 0 0 0 0 0 0 0 0 0 0 0 0 0 0 0
0 0 1 0 0 0 0 0 0 0 0 0 0 0 0 0 0 0 0 0 0 0 0 0 0 0 0 0 0 0 0 0 0 0 0 0 0 0 0 0 0 0 0 0 0 0 0
0 0 1 0 0 0 0 0 0 0 0 0 0 0 0 0 0 0 0 0 0 0 0 0 0 0 0 0 0 0 0 0 0 0 0 0 0 0 0 0 0 0 0 0 0 0 0
0 0 0 0 0 0 0 0 0 0 0 0 0 0 0 0 0 0 0 0 0 0 0 0 0 0 0 0 0 0 0 0 0 0 0 0 0 0 0 0 0 0 0 0 0 0 0
9 11 0 0 0 0 0 0 0 0 0 0 0 0 0 0 0 0 0 0 0 0 0 0 0 0 0 0 0 0 0 0 0 0 0 0 0 0 0 0 0 0 0 0 0 0 0
11 31 10 0 0 0 0 0 0 0 0 0 0 0 0 0 0 0 0 0 0 0 0 0 0 0 0 0 0 0 0 0 0 0 0 0 0 0 0 0 0 0 0 0 0 0 0
1 9 29 0 0 0 0 0 0 0 0 0 0 0 0 0 0 0 0 0 0 0 0 0 0 0 0 0 0 0 0 0 0 0 0 0 0 0 0 0 0 0 0 0 0 0 0
5 1 25 11 0 0 0 0 0 0 0 0 0 0 0 0 0 0 0 0 0 0 0 0 0 0 0 0 0 0 0 0 0 0 0 0 0 0 0 0 0 0 0 0 0 0 0
6 0 3 24 0 0 0 0 0 0 0 0 0 0 0 0 0 0 0 0 0 0 0 0 0 0 0 0 0 0 0 0 0 0 0 0 0 0 0 0 0 0 0 0 0 0 0
9 5 8 3 7 0 0 0 0 0 0 0 0 0 0 0 0 0 0 0 0 0 0 0 0 0 0 0 0 0 0 0 0 0 0 0 0 0 0 0 0 0 0 0 0 0 0
5 5 4 7 1 1 0 0 0 0 0 0 0 0 0 0 0 0 0 0 0 0 0 0 0 0 0 0 0 0 0 0 0 0 0 0 0 0 0 0 0 0 0 0 0 0 0
0 4 5 7 5 2 0 0 0 0 0 0 0 0 0 0 0 0 0 0 0 0 0 0 0 0 0 0 0 0 0 0 0 0 0 0 0 0 0 0 0 0 0 0 0 0 0
1 3 3 7 2 3 0 0 0 0 0 0 0 0 0 0 0 0 0 0 0 0 0 0 0 0 0 0 0 0 0 0 0 0 0 0 0 0 0 0 0 0 0 0 0 0 0
16 1 3 5 1 4 2 0 0 0 0 0 0 0 0 0 0 0 0 0 0 0 0 0 0 0 0 0 0 0 0 0 0 0 0 0 0 0 0 0 0 0 0 0 0 0 0
21 13 2 4 4 5 4 1 0 0 0 0 0 0 0 0 0 0 0 0 0 0 0 0 0 0 0 0 0 0 0 0 0 0 0 0 0 0 0 0 0 0 0 0 0 0 0
19 13 4 3 2 6 4 1 0 0 0 0 0 0 0 0 0 0 0 0 0 0 0 0 0 0 0 0 0 0 0 0 0 0 0 0 0 0 0 0 0 0 0 0 0 0 0
26 26 15 7 0 7 3 3 1 0 0 0 0 0 0 0 0 0 0 0 0 0 0 0 0 0 0 0 0 0 0 0 0 0 0 0 0 0 0 0 0 0 0 0 0 0 0
18 16 14 9 0 3 3 6 3 0 0 0 0 0 0 0 0 0 0 0 0 0 0 0 0 0 0 0 0 0 0 0 0 0 0 0 0 0 0 0 0 0 0 0 0 0 0
6 11 13 18 3 7 2 5 6 1 0 0 0 0 0 0 0 0 0 0 0 0 0 0 0 0 0 0 0 0 0 0 0 0 0 0 0 0 0 0 0 0 0 0 0 0 0
23 21 17 12 4 5 1 2 6 4 0 0 0 0 0 0 0 0 0 0 0 0 0 0 0 0 0 0 0 0 0 0 0 0 0 0 0 0 0 0 0 0 0 0 0 0 0
CIN
0 0 0 0 0 0 0 0 0 0 0 0 0 0 0 0 0 0 0 0 0 0 0 0 0 0 0 0 0 0 0 0 0 0 0 0 0 0 0 0 0 0 0 0 0 0 0
0 0 0 0 0 0 0 0 0 0 0 0 0 0 0 0 0 0 0 0 0 0 0 0 0 0 0 0 0 0 0 0 0 0 0 0 0 0 0 0 0 0 0 0 0 0 0
0 0 0 0 0 0 0 0 0 0 0 0 0 0 0 0 0 0 0 0 0 0 0 0 0 0 0 0 0 0 0 0 0 0 0 0 0 0 0 0 0 0 0 0 0 0 0
0 0 0 0 0 0 0 0 0 0 0 0 0 0 0 0 0 0 0 0 0 0 0 0 0 0 0 0 0 0 0 0 0 0 0 0 0 0 0 0 0 0 0 0 0 0 0
0 0 0 0 0 0 0 0 0 0 0 0 0 0 0 0 0 0 0 0 0 0 0 0 0 0 0 0 0 0 0 0 0 0 0 0 0 0 0 0 0 0 0 0 0 0 0
0 0 0 0 0 0 0 0 0 0 0 0 0 0 0 0 0 0 0 0 0 0 0 0 0 0 0 0 0 0 0 0 0 0 0 0 0 0 0 0 0 0 0 0 0 0 0
0 0 0 0 0 0 0 0 0 0 0 0 0 0 0 0 0 0 0 0 0 0 0 0 0 0 0 0 0 0 0 0 0 0 0 0 0 0 0 0 0 0 0 0 0 0 0
0 0 0 0 0 0 0 0 0 0 0 0 0 0 0 0 0 0 0 0 0 0 0 0 0 0 0 0 0 0 0 0 0 0 0 0 0 0 0 0 0 0 0 0 0 0 0
0 0 0 0 0 0 0 0 0 0 0 0 0 0 0 0 0 0 0 0 0 0 0 0 0 0 0 0 0 0 0 0 0 0 0 0 0 0 0 0 0 0 0 0 0 0 0
0 0 0 0 0 0 0 0 0 0 0 0 0 0 0 0 0 0 0 0 0 0 0 0 0 0 0 0 0 0 0 0 0 0 0 0 0 0 0 0 0 0 0 0 0 0 0
0 0 0 0 0 0 0 0 0 0 0 0 0 0 0 0 0 0 0 0 0 0 0 0 0 0 0 0 0 0 0 0 0 0 0 0 0 0 0 0 0 0 0 0 0 0 0
0 0 0 0 0 0 0 0 0 0 0 0 0 0 0 0 0 0 0 0 0 0 0 0 0 0 0 0 0 0 0 0 0 0 0 0 0 0 0 0 0 0 0 0 0 0 0
-1 0 0 0 0 0 0 0 0 0 0 0 0 0 0 0 0 0 0 0 0 0 0 0 0 0 0 0 0 0 0 0 0 0 0 0 0 0 0 0 0 0 0 0 0 0 0
-1 0 0 0 0 0 0 0 0 0 0 0 0 0 0 0 0 0 0 0 0 0 0 0 0 0 0 0 0 0 0 0 0 0 0 0 0 0 0 0 0 0 0 0 0 0 0
-3 0 0 0 0 0 0 0 0 0 0 0 0 0 0 0 0 0 0 0 0 0 0 0 0 0 0 0 0 0 0 0 0 0 0 0 0 0 0 0 0 0 0 0 0 0 0
0 -3 0 0 0 0 0 0 0 0 0 0 0 0 0 0 0 0 0 0 0 0 0 0 0 0 0 0 0 0 0 0 0 0 0 0 0 0 0 0 0 0 0 0 0 0 0
0 0 -5 0 0 0 0 0 0 0 0 0 0 0 0 0 0 0 0 0 0 0 0 0 0 0 0 0 0 0 0 0 0 0 0 0 0 0 0 0 0 0 0 0 0 0 0
0 0 0 0 -1 0 0 0 0 0 0 0 0 0 0 0 0 0 0 0 0 0 0 0 0 0 0 0 0 0 0 0 0 0 0 0 0 0 0 0 0 0 0 0 0 0 0
0 0 0 0 0 0 0 0 0 0 0 0 0 0 0 0 0 0 0 0 0 0 0 0 0 0 0 0 0 0 0 0 0 0 0 0 0 0 0 0 0 0 0 0 0 0 0
0 0 0 0 0 -3 0 0 0 0 0 0 0 0 0 0 0 0 0 0 0 0 0 0 0 0 0 0 0 0 0 0 0 0 0 0 0 0 0 0 0 0 0 0 0 0 0
0 0 0 0 0 -8 0 0 0 0 0 0 0 0 0 0 0 0 0 0 0 0 0 0 0 0 0 0 0 0 0 0 0 0 0 0 0 0 0 0 0 0 0 0 0 0 0
0 0 0 0 0 0 0 0 0 0 0 0 0 0 0 0 0 0 0 0 0 0 0 0 0 0 0 0 0 0 0 0 0 0 0 0 0 0 0 0 0 0 0 0 0 0 0
0 0 0 0 0 0 0 0 0 0 0 0 0 0 0 0 0 0 0 0 0 0 0 0 0 0 0 0 0 0 0 0 0 0 0 0 0 0 0 0 0 0 0 0 0 0 0
0 0 0 0 0 0 0 0 0 0 0 0 0 0 0 0 0 0 0 0 0 0 0 0 0 0 0 0 0 0 0 0 0 0 0 0 0 0 0 0 0 0 0 0 0 0 0
0 -1 0 0 0 0 0 0 0 0 0 0 0 0 0 0 0 0 0 0 0 0 0 0 0 0 0 0 0 0 0 0 0 0 0 0 0 0 0 0 0 0 0 0 0 0 0
0 0 0 0 0 0 0 0 0 0 0 0 0 0 0 0 0 0 0 0 0 0 0 0 0 0 0 0 0 0 0 0 0 0 0 0 0 0 0 0 0 0 0 0 0 0 0
0 0 0 0 0 0 0 0 0 0 0 0 0 0 0 0 0 0 0 0 0 0 0 0 0 0 0 0 0 0 0 0 0 0 0 0 0 0 0 0 0 0 0 0 0 0 0
-1 -1 0 -1 0 0 0 0 0 0 0 0 0 0 0 0 0 0 0 0 0 0 0 0 0 0 0 0 0 0 0 0 0 0 0 0 0 0 0 0 0 0 0 0 0 0 0
0 0 0 -2 -5 0 0 0 0 0 0 0 0 0 0 0 0 0 0 0 0 0 0 0 0 0 0 0 0 0 0 0 0 0 0 0 0 0 0 0 0 0 0 0 0 0 0
Wind_Speed
24 25 25 24 24 24 23 23 22 20 19 18 17 16 15 14 14 15 16 16 16 15 15 14 13 13 14 17 5 14 13 11 6 17 18 17 19 19 19 20 24 23 19 21 19 19 20
25 24 24 25 24 24 24 23 22 20 19 18 17 16 15 14 15 15 15 15 15 15 14 14 12 13 15 17 11 11 8 10 6 24 21 20 19 22 23 21 21 20 22 21 20 19 17
24 24 24 25 24 24 24 23 22 20 19 18 17 16 15 15 15 15 16 15 15 16 15 14 14 16 17 15 10 9 9 10 20 24 23 21 19 18 20 24 23 22 22 20 17 16 17
24 24 24 25 25 24 24 23 22 21 20 19 18 17 16 16 16 16 16 16 16 16 15 15 14 18 18 13 12 10 10 23 23 25 26 26 27 27 22 23 19 19 18 19 15 14 14
24 25 25 25 25 24 24 23 23 21 21 19 19 18 17 17 16 16 16 16 16 13 13 16 14 10 15 13 10 9 9 16 18 24 26 23 25 25 21 20 21 19 20 20 17 12 16
24 25 26 25 25 24 24 24 23 22 21 20 20 19 18 18 17 17 16 14 11 16 15 13 12 7 12 12 10 10 12 16 17 16 17 21 23 23 25 26 25 21 21 21 19 18 18
25 24 25 25 25 25 24 24 23 23 22 21 21 20 19 19 18 17 16 16 16 14 11 11 11 14 14 13 13 9 11 15 17 21 19 23 26 27 24 21 18 18 20 21 20 19 18
26 26 25 25 25 25 25 24 24 23 22 22 21 20 19 19 18 17 16 14 18 18 9 12 11 14 12 15 15 14 7 19 20 20 19 21 27 20 20 25 22 21 22 23 21 21 20
27 26 26 25 25 25 25 25 24 24 23 22 21 21 20 20 18 15 14 14 17 17 11 15 13 13 14 19 21 10 18 20 24 26 27 24 20 18 20 30 27 22 23 22 21 20 22
26 26 28 25 25 25 25 25 24 24 23 23 22 21 20 20 17 16 14 17 18 16 12 16 15 14 14 17 20 21 21 18 19 20 21 24 22 23 23 25 26 25 22 19 18 20 26
26 28 28 27 25 26 25 25 25 24 23 23 22 22 21 18 15 16 15 16 17 15 11 14 10 12 16 17 16 24 23 24 21 20 18 19 23 27 26 23 24 24 22 22 20 22 25
28 27 28 27 26 26 26 25 25 24 23 23 22 22 21 19 16 16 17 15 15 11 12 10 11 13 15 18 18 16 22 23 19 23 25 21 19 22 24 20 22 24 25 25 24 24 31
28 28 28 28 26 26 26 25 25 24 23 23 23 22 20 19 18 16 15 14 10 7 13 9 10 11 14 15 17 19 22 24 20 19 20 19 23 20 25 24 21 32 28 29 30 31 33
30 28 28 28 26 26 26 25 25 24 24 23 23 21 18 18 17 16 15 15 10 11 8 11 9 11 12 14 17 18 18 20 24 20 20 21 21 26 24 27 24 29 30 31 32 32 32
26 29 28 28 27 26 26 25 25 24 23 23 22 20 19 20 19 17 16 16 15 11 10 7 9 9 11 13 14 17 19 19 19 20 21 21 20 20 23 25 24 26 31 24 27 27 31
24 29 29 28 27 27 26 26 25 24 23 22 21 21 22 21 19 17 19 21 17 13 11 8 7 9 9 11 13 16 17 16 18 18 18 19 19 20 21 20 27 26 24 29 30 35 36
26 27 30 29 27 27 26 26 25 24 22 20 22 24 21 19 19 20 23 21 17 14 12 8 7 10 10 11 13 15 16 15 15 17 18 18 18 20 19 23 23 23 26 28 27 28 33
26 27 29 29 28 27 26 25 24 24 22 20 23 28 21 19 23 23 24 19 15 12 12 11 10 11 9 10 12 14 14 16 15 16 16 17 17 21 20 19 21 21 23 25 30 30 28
28 27 27 26 28 27 26 25 24 23 20 20 26 26 20 21 27 25 22 21 18 13 12 10 10 11 10 9 12 13 14 15 15 14 15 15 18 21 20 18 18 19 20 23 25 26 27
29 27 26 27 27 28 26 25 24 23 20 20 25 29 25 24 24 24 22 22 20 17 13 11 11 11 9 10 13 11 13 14 14 13 15 15 16 17 20 18 18 19 18 19 23 27 27
32 30 29 27 25 29 27 26 24 23 21 22 26 30 25 29 32 26 23 18 18 15 15 12 13 10 7 9 9 10 11 13 13 13 14 14 15 14 14 14 15 17 17 17 19 20 25
31 31 29 29 24 26 28 27 25 23 21 25 29 27 25 26 24 27 25 25 18 17 13 14 15 7 8 9 8 8 10 10 12 12 13 14 14 15 16 14 15 15 14 15 15 17 16
30 31 30 29 26 27 28 28 26 24 22 26 26 24 25 28 27 27 30 24 22 15 18 16 13 10 9 11 12 12 13 12 12 13 13 14 15 17 19 17 17 18 17 14 19 16 19
30 30 31 28 27 28 27 29 27 25 24 25 25 25 29 32 29 31 25 25 21 20 18 16 13 13 11 7 10 13 14 15 16 18 14 13 15 16 17 19 23 19 18 17 15 15 12
30 30 29 29 28 28 26 27 28 27 24 26 24 26 29 33 28 28 25 24 18 18 18 16 16 14 3 12 13 16 18 15 16 17 14 13 14 16 18 19 16 17 15 18 20 19 14
30 30 30 29 28 30 25 26 31 28 25 25 26 23 26 29 34 24 25 23 23 22 20 19 15 5 15 15 16 14 9 11 11 13 14 15 15 13 17 20 21 19 16 17 19 21 16
31 31 30 30 31 30 28 27 26 29 26 25 25 23 25 30 26 22 27 26 21 21 20 17 14 17 17 18 19 16 11 12 9 9 11 12 13 11 13 16 15 14 16 17 24 22 16
32 32 32 31 31 29 29 28 26 28 27 25 25 23 25 28 25 25 23 24 23 23 24 17 17 21 19 20 20 17 12 6 9 8 9 9 12 12 15 16 19 14 17 17 18 18 17
30 31 32 30 30 30 28 30 27 24 28 25 28 22 19 24 24 23 21 21 23 21 19 19 23 18 16 17 20 17 15 11 8 10 8 8 8 13 9 13 14 9 14 13 15 16 16
Wind_Direction
316 318 318 317 314 314 314 314 312 309 311 310 315 309 316 313 293 250 244 248 241 238 240 245 252 259 29 7 323 263 277 283 126 89 74 71 49 49 42 43 34 35 44 38 43 39 38
312 314 315 315 314 309 311 310 310 305 307 305 309 298 300 312 294 254 253 248 237 230 230 233 248 30 23 31 217 262 219 293 311 43 39 54 61 59 43 37 33 50 51 50 45 43 43
310 311 312 311 310 306 308 308 307 301 301 298 302 289 287 303 290 258 261 254 244 236 235 228 70 27 14 45 180 252 291 140 0 47 53 65 69 56 56 44 63 58 38 44 46 37 39
306 307 307 306 305 302 303 305 303 298 295 292 292 284 281 288 283 261 258 257 254 246 258 18 54 108 45 173 170 287 195 48 18 46 55 61 52 48 52 68 52 43 45 29 43 45 38
304 303 301 301 300 298 299 301 300 296 290 287 279 281 279 276 273 259 255 256 260 274 294 193 221 138 94 202 213 217 209 112 97 61 52 61 57 56 57 47 37 39 26 28 33 42 32
301 301 298 297 296 295 295 297 298 292 287 283 275 279 277 267 265 263 253 234 272 226 250 231 233 127 214 191 194 212 168 96 74 80 72 56 56 53 45 34 24 30 30 30 28 36 32
294 302 298 296 292 292 293 294 295 290 285 280 275 275 274 262 265 266 259 251 250 259 305 335 244 199 195 195 155 266 169 97 75 52 58 54 41 38 42 44 45 42 36 31 34 38 37
290 296 299 296 291 289 291 291 292 288 283 277 274 270 269 259 258 261 257 269 215 193 356 225 220 191 202 168 104 311 263 62 57 54 63 53 41 54 56 42 43 43 36 30 37 39 34
288 291 295 296 291 288 289 289 289 288 282 277 271 267 266 257 260 267 265 252 210 206 273 224 231 233 179 53 48 276 44 65 47 39 41 49 54 59 54 35 36 42 34 31 31 37 34
288 289 288 294 291 287 287 287 286 287 282 275 270 266 265 257 262 252 261 225 222 226 307 241 231 241 191 83 52 53 49 62 55 57 53 47 53 48 43 39 38 36 36 32 36 34 22
286 285 286 287 289 286 286 286 284 285 281 274 269 265 263 264 269 256 251 240 234 252 349 286 310 252 23 61 81 7 35 33 50 54 57 53 45 36 37 40 40 35 35 39 44 36 29
281 282 284 284 285 283 284 284 283 283 280 274 268 264 261 256 262 257 249 256 256 310 348 4 9 59 62 29 58 73 42 35 57 43 37 52 54 46 38 45 43 36 37 40 41 34 22
278 278 281 282 283 279 281 283 282 282 278 272 268 263 258 257 254 255 257 268 304 355 321 14 23 33 42 37 43 37 34 28 41 42 38 47 42 46 40 37 43 29 32 26 25 24 19
272 276 277 277 282 277 279 281 280 281 277 271 268 263 261 257 256 254 258 268 297 326 1 345 17 27 35 47 33 32 38 36 32 43 41 34 35 30 37 35 34 32 34 30 22 20 17
278 271 273 275 279 276 276 278 279 280 276 270 266 259 257 255 254 254 255 263 283 313 335 47 18 26 27 37 39 33 29 38 41 44 35 34 36 39 38 38 40 34 30 41 30 29 23
290 278 270 272 277 274 274 275 276 279 275 268 258 253 251 256 254 253 252 258 276 298 322 340 11 17 37 40 33 30 33 44 41 48 49 37 38 37 38 43 34 38 43 30 29 21 20
292 290 271 268 274 272 272 272 274 277 275 266 254 247 254 257 253 250 249 258 274 291 307 331 353 8 20 31 28 29 35 45 52 43 41 44 41 35 39 34 34 35 34 35 36 32 22
294 295 288 267 268 269 269 270 272 275 273 261 250 243 256 251 244 251 250 259 275 291 301 318 338 352 18 31 26 28 34 34 53 45 48 47 45 32 35 42 40 40 37 36 28 25 29
293 298 291 280 266 266 267 268 269 272 272 255 246 246 259 248 244 247 253 259 270 282 293 313 326 337 356 25 20 29 35 46 47 62 59 64 43 32 33 40 40 37 39 38 38 36 30
282 289 300 285 273 262 264 265 265 269 269 256 247 242 248 248 250 248 250 256 262 275 288 306 324 332 353 4 355 35 37 47 70 79 72 74 56 46 34 35 40 35 39 40 35 29 27
275 281 289 290 278 258 260 263 262 266 265 253 247 245 247 244 243 248 250 257 258 269 282 293 306 317 347 2 13 33 44 58 80 84 75 71 56 54 48 48 45 38 38 38 33 32 28
274 275 284 289 288 273 258 259 258 263 263 250 243 245 248 249 250 242 249 251 257 265 277 281 292 311 324 348 13 86 51 84 68 75 68 66 56 51 41 51 42 35 38 38 35 32 24
273 268 274 283 287 277 263 256 256 258 260 251 249 253 252 248 246 245 247 252 255 262 273 285 285 299 311 324 339 5 4 18 52 52 59 57 54 43 38 42 35 37 42 45 38 41 36
274 272 268 277 284 279 268 256 252 254 256 255 251 249 247 245 246 246 250 250 254 259 267 277 283 287 301 50 28 6 354 3 10 16 42 54 50 46 37 37 33 43 46 43 38 37 45
269 266 265 275 278 282 273 264 252 252 255 254 252 248 246 245 248 249 248 250 250 262 266 270 277 284 113 299 314 311 314 345 360 12 42 58 53 43 38 31 31 42 45 39 35 37 52
270 271 265 272 277 279 275 269 250 250 251 254 253 254 251 246 246 251 246 247 247 252 259 265 279 247 278 291 297 310 348 3 27 31 40 41 47 47 38 30 30 38 47 49 44 38 57
269 270 267 264 268 273 276 273 265 248 249 251 253 253 251 247 250 249 248 244 251 251 256 258 253 265 276 280 284 301 326 342 12 33 40 43 41 41 39 30 31 44 55 54 32 32 57
267 265 266 265 265 266 270 269 268 251 246 248 251 254 250 248 250 251 254 249 249 250 251 251 255 263 268 272 280 295 318 347 355 19 35 43 43 40 41 31 30 61 54 39 40 51 59
270 267 267 268 270 267 270 266 270 263 245 246 247 253 257 252 252 255 258 260 256 254 255 243 261 267 263 273 276 290 305 327 348 354 17 29 48 33 47 32 37 86 46 54 57 56 63